Location: Morehouse Lake Observatory
(43.3628°N, 74.6770°W)
Time: 08:30:31
(UTC-04:00)

OTV 5 (USA 277) - Visible Passes

Search period start: 18 October 2019 00:00
Search period end: 28 October 2019 00:00
Orbit: 310 x 324 km, 54.5° (Epoch: 08 October)

Date Brightness Start Highest point End Pass type
(mag) Time Alt. Az. Time Alt. Az. Time Alt. Az.
18 Oct ? 05:08:44 17° NE 05:08:44 17° NE 05:10:06 10° ENE visible
18 Oct ? 06:39:51 10° WNW 06:42:31 48° SW 06:45:09 10° SSE visible
19 Oct ? 05:23:15 33° ENE 05:23:15 33° ENE 05:25:20 10° ESE visible
20 Oct ? 05:37:54 54° SE 05:37:54 54° SE 05:40:06 10° SE visible
21 Oct ? 05:52:40 23° SSW 05:52:40 23° SSW 05:54:15 10° SSE visible
27 Oct ? 18:56:04 10° SSE 18:56:56 11° SE 18:56:56 11° SE visible
